McCook, NE

11:39 PM CST on December 12, 2017 (GMT -0600)
McCook Municipal

Weather History for KMCK - October, 2014

Change the Weather History Date:

Monday, October 6, 2014

  Actual Average Record
Temperature  
Mean Temperature 63 °F 55 °F  
Max Temperature 82 °F 70 °F 92 °F (1990)
Min Temperature 44 °F 40 °F 26 °F (1985)
Degree Days  
Heating Degree Days 3    
Growing Degree Days 12 (Base 50)    
Moisture  
Dew Point 43 °F    
Average Humidity 61    
Maximum Humidity 93    
Minimum Humidity 21    
Precipitation  
Precipitation 0.00 in 0.06 in 0.56 in (2004)
Month to date precipitation 0.18 0.35  
Year to date precipitation 22.81 19.50  
Sea Level Pressure  
Sea Level Pressure 29.81 in    
Wind  
Wind Speed 10 mph (West)    
Max Wind Speed 23 mph    
Max Gust Speed 33 mph    
Visibility 10 miles    
Events      
T = Trace of Precipitation, MM = Missing Value Source: NWS Daily Summary

Daily Weather History Graph

Daily Weather History Graph

Search for Another Location

Airport or City:

Trip Planner

Search our weather history database for the weather conditions in past years. The results will help you decide how hot, cold, wet, or windy it might be!

Date:

Astronomy

Oct. 06, 2014 Rise Set
Actual Time 7:43 AM CDT 7:16 PM CDT
Civil Twilight 7:16 AM CDT 7:43 PM CDT
Nautical Twilight 6:45 AM CDT 8:14 PM CDT
Astronomical Twilight 6:13 AM CDT 8:46 PM CDT
Moon 6:14 PM CDT (10/6) 5:32 AM CDT (10/6)
Length of Visible Light 12h 26m
Length of Day
11h 32m
Waxing Gibbous, 96% of the Moon is Illuminated
Oct 6
Waxing Gibbous
Oct 8
Full
Oct 15
Last Quarter
Oct 23
New
Oct 30
First Quarter

Hourly Weather History & Observations

Time (CDT) Temp. Windchill Dew Point Humidity Pressure Visibility Wind Dir Wind Speed Gust Speed Precip Events Conditions
12:53 AM 46.0 °F 42.5 °F 44.1 °F 93% 29.89 in 10.0 mi WSW 6.9 mph - N/A   Partly Cloudy
1:53 AM 45.0 °F 41.2 °F 43.0 °F 93% 29.89 in 10.0 mi WSW 6.9 mph - N/A   Clear
2:53 AM 46.0 °F 41.0 °F 43.0 °F 89% 29.89 in 10.0 mi WSW 10.4 mph - N/A   Clear
3:53 AM 46.0 °F 41.4 °F 43.0 °F 89% 29.88 in 10.0 mi West 9.2 mph - N/A   Clear
4:53 AM 45.0 °F 40.6 °F 42.1 °F 90% 29.87 in 10.0 mi WSW 8.1 mph - N/A   Clear
5:53 AM 44.1 °F 40.1 °F 42.1 °F 93% 29.90 in 10.0 mi West 6.9 mph - N/A   Clear
6:53 AM 45.0 °F 39.7 °F 42.1 °F 90% 29.88 in 10.0 mi WSW 10.4 mph - N/A   Clear
7:53 AM 46.0 °F 42.5 °F 43.0 °F 89% 29.86 in 10.0 mi West 6.9 mph - N/A   Clear
8:53 AM 50.0 °F - 46.0 °F 86% 29.87 in 10.0 mi West 9.2 mph - N/A   Clear
9:53 AM 57.0 °F - 48.0 °F 72% 29.86 in 10.0 mi WSW 11.5 mph - N/A   Clear
10:53 AM 64.0 °F - 48.0 °F 56% 29.86 in 10.0 mi WSW 12.7 mph - N/A   Clear
11:53 AM 68.0 °F - 46.9 °F 47% 29.83 in 10.0 mi West 9.2 mph - N/A   Clear
12:53 PM 73.9 °F - 45.0 °F 35% 29.78 in 10.0 mi West 11.5 mph - N/A   Clear
1:53 PM 75.9 °F - 43.0 °F 31% 29.75 in 10.0 mi West 10.4 mph 18.4 mph N/A   Clear
2:53 PM 80.1 °F - 37.0 °F 21% 29.71 in 10.0 mi NW 18.4 mph 29.9 mph N/A   Clear
3:53 PM 80.1 °F - 37.0 °F 21% 29.70 in 10.0 mi WNW 23.0 mph 33.4 mph N/A   Clear
4:53 PM 79.0 °F - 36.0 °F 21% 29.70 in 10.0 mi NW 23.0 mph 33.4 mph N/A   Clear
5:53 PM 77.0 °F - 39.0 °F 25% 29.70 in 10.0 mi WNW 13.8 mph - N/A   Clear
6:53 PM 70.0 °F - 41.0 °F 35% 29.72 in 10.0 mi WNW 5.8 mph - N/A   Clear
7:53 PM 62.1 °F - 42.1 °F 48% 29.74 in 10.0 mi NW 8.1 mph - N/A   Clear
8:53 PM 63.0 °F - 42.1 °F 46% 29.75 in 10.0 mi WNW 6.9 mph - N/A   Clear
9:53 PM 61.0 °F - 44.1 °F 54% 29.77 in 10.0 mi North - - N/A   Clear
10:53 PM 55.0 °F - 45.0 °F 69% 29.78 in 10.0 mi WSW 9.2 mph - N/A   Clear
11:53 PM 53.1 °F - 44.1 °F 71% 29.78 in 10.0 mi WSW 8.1 mph - N/A   Clear